sat.trackr.live / text

‹ back to catalog

BEIDOU-2 IGSO-4 (C09)

NORAD 37763 · 2011-038A

PAYLOAD ACTIVE UNKNOWN

§ Identity

Operator
Country
PRC
Launch date
2011-07-26
Launch site
XICLF
Launch vehicle
Mass (kg)
RCS (m²)
16.30

Purposes: comms, nav

External: N2YO · Heavens-Above · Gunter

§ Orbital elements

Epoch: 2026-05-25T00:45:21.792672Z

Period
1,435.85 min
Inclination
54.5939°
Eccentricity
0.0158413
Mean motion
1.00289137 rev/d
Perigee alt
35,113.9 km
Apogee alt
36,449.6 km
Semi-major
42,159.9 km
B*
0.0000e+0
RAAN
165.8779°
Arg perigee
231.3629°
Mean anomaly
308.9932°
Rev number
5,441

§ Raw data

BEIDOU-2 IGSO-4 (C09)1 37763U 11038A   26145.03150223  .00000043  00000+0  00000+0 0  99982 37763  54.5939 165.8779 0158413 231.3629 308.9932  1.00289137 54413

JSON: /api/v1/satellites/37763 · /tle

For live sub-satellite position, see the globe view (requires WebGL).

§ Visibility from observer

Set your observer location to see the next 7 days of passes ≥ 10°. The values pass through the URL so the page stays shareable.

No JS? Fill the form by hand. The geolocation button needs JavaScript.